DW6340 Weather Reports


time (UTC)temp
C
wind
direction
speed
KPH
gust
KPH
rain 1hr
cm
rain 24hr
cm
rain mn
cm
humidity
%
barometer
mb
20260504214557 8 257 1.6 14.5 0.00 0.00 0.00 50 1003.1
20260504213055 11 240 1.6 11.3 0.00 0.00 0.00 45 1002.9
20260504211551 9 249 1.6 22.5 0.00 0.00 0.00 52 1003.3
20260504210105 9 257 4.8 19.3 0.00 0.00 0.00 49 1003.4
20260504204557 7 267 6.4 20.9 0.00 0.00 0.00 55 1003.5
20260504203103 8 253 6.4 17.7 0.00 0.00 0.00 53 1003.7
20260504201548 7 241 3.2 14.5 0.00 0.00 0.00 57 1003.9
20260504200048 8 254 4.8 17.7 0.00 0.00 0.00 47 1003.7
20260504194550 8 259 6.4 19.3 0.00 0.00 0.00 43 1003.6
20260504193049 8 262 4.8 17.7 0.00 0.00 0.00 40 1003.8
20260504191545 9 259 3.2 16.1 0.00 0.00 0.00 37 1003.5
20260504184537 8 279 0.0 12.9 0.00 0.00 0.00 45 1004.0
20260504183036 8 330 1.6 9.7 0.00 0.00 0.00 47 1004.2
20260504181540 7 262 1.6 17.7 0.00 0.00 0.00 47 1004.3
20260504180034 5 249 6.4 40.2 0.00 0.00 0.00 64 1004.5
20260504174534 5 264 12.9 32.2 0.00 0.00 0.00 65 1004.7
20260504173035 6 246 8.0 24.1 0.00 0.00 0.00 61 1004.5
20260504171532 8 255 11.3 24.1 0.00 0.00 0.00 50 1004.4
20260504081533 0 355 0.0 0.0 0.00 0.00 0.00 67 1006.4
20260504050010 2 355 0.0 0.0 0.00 0.00 0.00 54 1007.2
20260504044514 3 355 0.0 0.0 0.00 0.00 0.00 54 1007.3
20260504043010 2 355 0.0 0.0 0.00 0.00 0.00 56 1007.5
20260504041508 3 355 0.0 0.0 0.00 0.00 0.00 54 1007.7
20260504040008 3 355 0.0 0.0 0.00 0.00 0.00 50 1007.7
20260504034508 4 355 0.0 0.0 0.00 0.00 0.00 48 1007.6
20260504033008 4 355 0.0 0.0 0.00 0.00 0.00 46 1007.6
20260504031507 5 355 0.0 0.0 0.00 0.00 0.00 45 1007.5
20260504030007 4 355 0.0 0.0 0.00 0.00 0.00 48 1007.4
20260504024506 4 355 0.0 0.0 0.00 0.00 0.00 50 1007.2
20260504023006 5 355 0.0 0.0 0.00 0.00 0.00 50 1007.1
20260504021505 5 355 0.0 0.0 0.00 0.00 0.00 50 1007.0
20260504020005 6 355 0.0 1.6 0.00 0.00 0.00 49 1007.1
20260504014504 6 355 0.0 3.2 0.00 0.00 0.00 48 1007.0
20260504013010 7 355 0.0 1.6 0.00 0.00 0.00 46 1006.9
20260504011503 7 290 0.0 8.0 0.00 0.00 0.00 43 1006.8
20260504010004 9 314 0.0 4.8 0.00 0.00 0.00 37 1006.8
20260504004504 10 285 0.0 4.8 0.00 0.00 0.00 33 1006.6
20260504003001 10 275 0.0 8.0 0.00 0.00 0.00 31 1006.5
20260504001501 11 299 0.0 1.6 0.00 0.00 0.00 31 1006.7
20260504000101 11 299 0.0 3.2 0.00 0.00 0.00 31 1006.6
20260503234558 10 263 3.2 14.5 0.00 0.00 0.00 31 1006.8
20260503233103 11 259 4.8 16.1 0.00 0.00 0.00 31 1006.9
20260503231558 10 236 3.2 14.5 0.00 0.00 0.00 28 1006.9
20260503230058 12 265 3.2 11.3 0.00 0.00 0.00 25 1007.0
20260503224556 11 360 1.6 17.7 0.00 0.00 0.00 28 1006.8
20260503223056 12 272 3.2 16.1 0.00 0.00 0.00 23 1007.0
20260503221559 13 243 6.4 19.3 0.00 0.00 0.00 22 1006.8